Time,TemperatureF,DewpointF,PressureIn,WindDirection,WindDirectionDegrees,WindSpeedMPH,WindSpeedGustMPH,Humidity,HourlyPrecipIn,Conditions,Clouds,dailyrainin,SoftwareType,DateUTC
2013-03-05 00:02:00,48.4,43.2,30.02,SE,142,0.0,3.0,82,0.00,,,0.00,meteohub,2013-03-05 08:02:00,
2013-03-05 00:07:00,48.0,42.4,30.02,SE,142,0.0,2.0,81,0.00,,,0.00,meteohub,2013-03-05 08:07:00,
2013-03-05 00:12:00,47.8,41.7,30.02,SE,142,0.0,0.0,79,0.00,,,0.00,meteohub,2013-03-05 08:12:00,
2013-03-05 00:17:00,47.8,41.7,30.02,SE,142,0.0,0.0,79,0.00,,,0.00,meteohub,2013-03-05 08:17:00,
2013-03-05 00:22:00,47.8,41.9,30.02,SE,142,0.0,0.0,80,0.00,,,0.00,meteohub,2013-03-05 08:22:00,
2013-03-05 00:27:00,47.7,42.1,30.03,SE,142,0.0,0.0,81,0.00,,,0.00,meteohub,2013-03-05 08:27:00,
2013-03-05 00:32:00,47.5,42.6,30.03,SE,142,0.0,0.0,83,0.00,,,0.00,meteohub,2013-03-05 08:32:00,
2013-03-05 00:37:00,47.5,42.6,30.02,SE,142,2.0,0.0,83,0.00,,,0.00,meteohub,2013-03-05 08:37:00,
2013-03-05 00:42:00,47.5,42.8,30.02,SE,142,5.0,5.0,84,0.00,,,0.00,meteohub,2013-03-05 08:42:00,
2013-03-05 00:47:00,47.5,43.2,30.02,SE,142,0.0,5.0,85,0.00,,,0.00,meteohub,2013-03-05 08:47:00,
2013-03-05 00:52:00,47.5,43.2,30.02,SE,142,0.0,5.0,85,0.00,,,0.00,meteohub,2013-03-05 08:52:00,
2013-03-05 00:57:00,47.5,43.2,30.02,SE,142,0.0,5.0,85,0.00,,,0.00,meteohub,2013-03-05 08:57:00,
2013-03-05 01:03:00,47.7,43.3,30.02,SE,142,0.0,4.0,85,0.00,,,0.00,meteohub,2013-03-05 09:03:00,
2013-03-05 01:08:00,47.7,43.3,30.02,SE,142,1.0,4.0,85,0.00,,,0.00,meteohub,2013-03-05 09:08:00,
2013-03-05 01:13:00,47.8,43.5,30.02,SE,142,4.0,4.0,85,0.00,,,0.00,meteohub,2013-03-05 09:13:00,
2013-03-05 01:18:00,48.0,43.7,30.02,SE,142,1.0,5.0,85,0.00,,,0.00,meteohub,2013-03-05 09:18:00,
2013-03-05 01:23:00,48.4,44.1,30.02,SE,142,2.0,5.0,85,0.00,,,0.00,meteohub,2013-03-05 09:23:00,
2013-03-05 01:28:00,48.6,43.9,30.01,SE,142,0.0,6.0,84,0.00,,,0.00,meteohub,2013-03-05 09:28:00,
2013-03-05 01:34:00,48.6,43.9,30.01,SE,142,0.0,6.0,84,0.00,,,0.00,meteohub,2013-03-05 09:34:00,
2013-03-05 01:39:00,48.4,43.7,30.01,SE,142,0.0,6.0,84,0.00,,,0.00,meteohub,2013-03-05 09:39:00,
2013-03-05 01:44:00,48.4,44.1,30.01,SE,142,0.0,3.0,85,0.00,,,0.00,meteohub,2013-03-05 09:44:00,
2013-03-05 01:49:00,48.0,43.7,30.01,SE,142,0.0,0.0,85,0.00,,,0.00,meteohub,2013-03-05 09:49:00,
2013-03-05 01:54:00,48.0,43.3,30.01,SE,142,0.0,1.0,84,0.00,,,0.00,meteohub,2013-03-05 09:54:00,
2013-03-05 01:59:00,47.7,43.0,30.01,SE,142,4.0,4.0,84,0.00,,,0.00,meteohub,2013-03-05 09:59:00,
2013-03-05 02:04:00,46.9,42.6,30.02,SE,142,2.0,4.0,85,0.00,,,0.00,meteohub,2013-03-05 10:04:00,
2013-03-05 02:10:00,46.4,42.4,30.01,SE,142,0.0,4.0,86,0.00,,,0.00,meteohub,2013-03-05 10:10:00,
2013-03-05 02:15:00,46.0,42.1,30.01,SE,142,0.0,4.0,86,0.00,,,0.00,meteohub,2013-03-05 10:15:00,
2013-03-05 02:20:00,45.7,41.7,30.01,SE,142,0.0,3.0,86,0.00,,,0.00,meteohub,2013-03-05 10:20:00,
2013-03-05 02:25:00,45.5,41.5,30.01,SE,142,0.0,0.0,86,0.00,,,0.00,meteohub,2013-03-05 10:25:00,
2013-03-05 02:30:00,45.3,41.4,30.01,SE,142,0.0,0.0,86,0.00,,,0.00,meteohub,2013-03-05 10:30:00,
2013-03-05 02:35:00,45.3,41.7,30.01,SE,142,0.0,0.0,87,0.00,,,0.00,meteohub,2013-03-05 10:35:00,
2013-03-05 02:40:00,45.1,41.2,30.01,SE,142,0.0,0.0,86,0.00,,,0.00,meteohub,2013-03-05 10:40:00,
2013-03-05 02:46:00,45.0,41.4,30.01,SE,142,0.0,0.0,87,0.00,,,0.00,meteohub,2013-03-05 10:46:00,
2013-03-05 02:51:00,44.8,41.2,30.01,SE,142,0.0,0.0,87,0.00,,,0.00,meteohub,2013-03-05 10:51:00,
2013-03-05 02:56:00,44.4,40.8,30.01,SE,142,0.0,0.0,87,0.00,,,0.00,meteohub,2013-03-05 10:56:00,
2013-03-05 03:01:00,44.2,41.0,30.01,SE,142,0.0,0.0,88,0.00,,,0.00,meteohub,2013-03-05 11:01:00,
2013-03-05 03:06:00,44.2,40.6,30.01,SE,142,0.0,0.0,87,0.00,,,0.00,meteohub,2013-03-05 11:06:00,
2013-03-05 03:11:00,44.1,40.5,30.01,SE,142,0.0,0.0,87,0.00,,,0.00,meteohub,2013-03-05 11:11:00,
2013-03-05 03:17:00,43.9,40.6,30.01,SE,142,0.0,0.0,88,0.00,,,0.00,meteohub,2013-03-05 11:17:00,
2013-03-05 03:22:00,43.9,40.3,30.01,SE,142,0.0,2.0,87,0.00,,,0.00,meteohub,2013-03-05 11:22:00,
2013-03-05 03:27:00,44.2,40.3,30.01,SE,142,3.0,3.0,86,0.00,,,0.00,meteohub,2013-03-05 11:27:00,
2013-03-05 03:32:00,45.0,40.5,30.01,SE,142,0.0,4.0,84,0.00,,,0.00,meteohub,2013-03-05 11:32:00,
2013-03-05 03:37:00,45.3,40.8,30.01,SE,142,0.0,4.0,84,0.00,,,0.00,meteohub,2013-03-05 11:37:00,
2013-03-05 03:42:00,45.3,40.8,30.01,SE,142,1.0,4.0,84,0.00,,,0.00,meteohub,2013-03-05 11:42:00,
2013-03-05 03:47:00,45.5,41.0,30.01,SE,142,0.0,3.0,84,0.00,,,0.00,meteohub,2013-03-05 11:47:00,
2013-03-05 03:52:00,45.3,40.8,30.01,SE,142,0.0,3.0,84,0.00,,,0.00,meteohub,2013-03-05 11:52:00,
2013-03-05 03:57:00,45.3,40.8,30.01,SE,142,0.0,3.0,84,0.00,,,0.00,meteohub,2013-03-05 11:57:00,
2013-03-05 04:02:00,45.3,40.8,30.01,SE,142,0.0,3.0,84,0.00,,,0.00,meteohub,2013-03-05 12:02:00,
2013-03-05 04:07:00,45.3,40.8,30.01,SE,142,0.0,0.0,84,0.00,,,0.00,meteohub,2013-03-05 12:07:00,
2013-03-05 04:12:00,45.1,40.6,30.01,SE,142,0.0,3.0,84,0.00,,,0.00,meteohub,2013-03-05 12:12:00,
2013-03-05 04:17:00,45.1,40.6,30.01,SE,142,0.0,3.0,84,0.00,,,0.00,meteohub,2013-03-05 12:17:00,
2013-03-05 04:22:00,45.1,40.6,30.01,SE,142,0.0,3.0,84,0.00,,,0.00,meteohub,2013-03-05 12:22:00,
2013-03-05 04:27:00,45.1,40.8,30.01,SE,142,2.0,4.0,85,0.00,,,0.00,meteohub,2013-03-05 12:27:00,
2013-03-05 04:32:00,45.0,40.6,30.01,SE,142,3.0,4.0,85,0.00,,,0.00,meteohub,2013-03-05 12:32:00,
2013-03-05 04:37:00,45.0,40.6,30.01,SE,142,0.0,4.0,85,0.00,,,0.00,meteohub,2013-03-05 12:37:00,
2013-03-05 04:42:00,45.0,40.6,30.02,SE,142,0.0,4.0,85,0.00,,,0.00,meteohub,2013-03-05 12:42:00,
2013-03-05 04:47:00,44.8,40.5,30.03,SE,142,0.0,4.0,85,0.00,,,0.00,meteohub,2013-03-05 12:47:00,
2013-03-05 04:52:00,44.8,40.5,30.03,SE,142,0.0,3.0,85,0.00,,,0.00,meteohub,2013-03-05 12:52:00,
2013-03-05 04:57:00,44.8,40.5,30.03,SE,142,3.0,0.0,85,0.00,,,0.00,meteohub,2013-03-05 12:57:00,
2013-03-05 05:02:00,45.0,40.1,30.03,SE,142,4.0,4.0,83,0.00,,,0.00,meteohub,2013-03-05 13:02:00,
2013-03-05 05:07:00,45.0,39.7,30.02,SE,142,1.0,6.0,82,0.00,,,0.00,meteohub,2013-03-05 13:07:00,
2013-03-05 05:12:00,45.0,40.1,30.02,SE,142,2.0,6.0,83,0.00,,,0.00,meteohub,2013-03-05 13:12:00,
2013-03-05 05:17:00,45.0,40.1,30.02,SE,134,0.0,7.0,83,0.00,,,0.00,meteohub,2013-03-05 13:17:00,
2013-03-05 05:22:00,44.8,39.9,30.02,SE,125,5.0,7.0,83,0.00,,,0.00,meteohub,2013-03-05 13:22:00,
2013-03-05 05:27:00,44.8,39.9,30.02,ESE,103,6.0,7.0,83,0.00,,,0.00,meteohub,2013-03-05 13:27:00,
2013-03-05 05:32:00,44.8,39.6,30.01,SE,134,7.0,11.0,82,0.00,,,0.00,meteohub,2013-03-05 13:32:00,
2013-03-05 05:37:00,45.0,39.7,30.01,SE,130,1.0,12.0,82,0.00,,,0.00,meteohub,2013-03-05 13:37:00,
2013-03-05 05:42:00,44.8,39.0,30.01,ESE,121,3.0,12.0,80,0.00,,,0.00,meteohub,2013-03-05 13:42:00,
2013-03-05 05:47:00,45.0,38.8,30.02,SE,127,0.0,11.0,79,0.00,,,0.00,meteohub,2013-03-05 13:47:00,
2013-03-05 05:52:00,45.0,38.1,30.02,SE,133,1.0,11.0,77,0.00,,,0.00,meteohub,2013-03-05 13:52:00,
2013-03-05 05:57:00,45.0,37.9,30.03,SSW,202,5.0,12.0,76,0.00,,,0.00,meteohub,2013-03-05 13:57:00,
2013-03-05 06:02:00,44.6,38.8,30.03,South,190,1.0,12.0,80,0.00,,,0.00,meteohub,2013-03-05 14:02:00,
2013-03-05 06:07:00,44.2,39.0,30.03,South,188,2.0,12.0,82,0.00,,,0.00,meteohub,2013-03-05 14:07:00,
2013-03-05 06:12:00,44.1,38.8,30.03,South,175,0.0,10.0,82,0.00,,,0.00,meteohub,2013-03-05 14:12:00,
2013-03-05 06:17:00,43.9,38.1,30.03,South,169,4.0,4.0,80,0.00,,,0.00,meteohub,2013-03-05 14:17:00,
2013-03-05 06:22:00,43.7,38.3,30.03,SSE,166,2.0,4.0,81,0.00,,,0.00,meteohub,2013-03-05 14:22:00,
2013-03-05 06:27:00,43.5,38.5,30.03,SSE,163,0.0,4.0,82,0.00,,,0.00,meteohub,2013-03-05 14:27:00,
2013-03-05 06:32:00,43.5,38.1,30.03,SE,146,1.0,7.0,81,0.00,,,0.00,meteohub,2013-03-05 14:32:00,
2013-03-05 06:37:00,43.5,38.1,30.03,SE,145,0.0,7.0,81,0.00,,,0.00,meteohub,2013-03-05 14:37:00,
2013-03-05 06:42:00,43.3,38.3,30.03,SE,145,0.0,7.0,82,0.00,,,0.00,meteohub,2013-03-05 14:42:00,
2013-03-05 06:47:00,43.3,38.3,30.03,SSE,148,4.0,6.0,82,0.00,,,0.00,meteohub,2013-03-05 14:47:00,
2013-03-05 06:52:00,43.2,38.1,30.03,SE,146,0.0,6.0,82,0.00,,,0.00,meteohub,2013-03-05 14:52:00,
2013-03-05 06:58:00,43.2,38.1,30.02,SE,146,0.0,7.0,82,0.00,,,0.00,meteohub,2013-03-05 14:58:00,
2013-03-05 07:03:00,43.2,38.1,30.03,SE,146,0.0,7.0,82,0.00,,,0.00,meteohub,2013-03-05 15:03:00,
2013-03-05 07:08:00,43.2,37.8,30.03,SE,146,0.0,7.0,81,0.00,,,0.00,meteohub,2013-03-05 15:08:00,
2013-03-05 07:13:00,43.2,37.8,30.02,SE,146,0.0,4.0,81,0.00,,,0.00,meteohub,2013-03-05 15:13:00,
2013-03-05 07:18:00,43.3,37.6,30.02,SE,146,0.0,3.0,80,0.00,,,0.00,meteohub,2013-03-05 15:18:00,
2013-03-05 07:23:00,43.5,37.8,30.03,SE,146,0.0,3.0,80,0.00,,,0.00,meteohub,2013-03-05 15:23:00,
2013-03-05 07:28:00,43.5,38.1,30.03,SE,146,0.0,0.0,81,0.00,,,0.00,meteohub,2013-03-05 15:28:00,
2013-03-05 07:34:00,43.7,38.3,30.04,SE,146,0.0,0.0,81,0.00,,,0.00,meteohub,2013-03-05 15:34:00,
2013-03-05 07:39:00,43.9,38.5,30.04,SE,146,0.0,0.0,81,0.00,,,0.00,meteohub,2013-03-05 15:39:00,
2013-03-05 07:44:00,44.2,37.8,30.03,SE,146,0.0,0.0,78,0.00,,,0.00,meteohub,2013-03-05 15:44:00,
2013-03-05 07:49:00,44.4,37.6,30.04,SE,146,0.0,3.0,77,0.00,,,0.00,meteohub,2013-03-05 15:49:00,
2013-03-05 07:54:00,45.0,38.1,30.04,SE,146,0.0,3.0,77,0.00,,,0.00,meteohub,2013-03-05 15:54:00,
2013-03-05 07:59:00,45.3,38.5,30.04,SSE,154,4.0,4.0,77,0.00,,,0.00,meteohub,2013-03-05 15:59:00,
2013-03-05 08:04:00,45.7,38.5,30.03,SSE,154,0.0,12.0,76,0.00,,,0.00,meteohub,2013-03-05 16:04:00,
2013-03-05 08:10:00,45.9,38.7,30.03,SSE,154,2.0,12.0,76,0.00,,,0.00,meteohub,2013-03-05 16:10:00,
2013-03-05 08:15:00,45.9,38.1,30.04,SSE,155,1.0,12.0,74,0.00,,,0.00,meteohub,2013-03-05 16:15:00,
2013-03-05 08:20:00,46.2,38.1,30.04,South,185,6.0,8.0,73,0.00,,,0.00,meteohub,2013-03-05 16:20:00,
2013-03-05 08:25:00,46.6,38.7,30.04,South,179,2.0,10.0,74,0.00,,,0.00,meteohub,2013-03-05 16:25:00,
2013-03-05 08:30:00,46.8,39.6,30.04,South,178,0.0,12.0,76,0.00,,,0.00,meteohub,2013-03-05 16:30:00,
2013-03-05 08:35:00,47.1,37.8,30.03,South,183,2.0,10.0,70,0.00,,,0.00,meteohub,2013-03-05 16:35:00,
2013-03-05 08:40:00,47.5,38.5,30.03,South,184,7.0,10.0,71,0.00,,,0.00,meteohub,2013-03-05 16:40:00,
2013-03-05 08:46:00,47.7,38.7,30.03,South,185,1.0,11.0,71,0.00,,,0.00,meteohub,2013-03-05 16:46:00,
2013-03-05 08:51:00,47.8,38.5,30.02,South,172,6.0,12.0,70,0.00,,,0.00,meteohub,2013-03-05 16:51:00,
2013-03-05 08:56:00,48.0,38.7,30.03,South,172,4.0,12.0,70,0.00,,,0.00,meteohub,2013-03-05 16:56:00,
2013-03-05 09:01:00,48.0,37.9,30.03,South,175,2.0,12.0,68,0.00,,,0.00,meteohub,2013-03-05 17:01:00,
2013-03-05 09:06:00,48.0,37.6,30.02,South,177,4.0,10.0,67,0.00,,,0.00,meteohub,2013-03-05 17:06:00,
2013-03-05 09:11:00,48.2,37.8,30.02,South,180,6.0,7.0,67,0.00,,,0.00,meteohub,2013-03-05 17:11:00,
2013-03-05 09:16:00,48.2,37.8,30.02,South,181,3.0,9.0,67,0.00,,,0.00,meteohub,2013-03-05 17:16:00,
2013-03-05 09:22:00,48.4,37.9,30.02,South,182,2.0,9.0,67,0.00,,,0.00,meteohub,2013-03-05 17:22:00,
2013-03-05 09:27:00,48.7,39.0,30.02,South,183,3.0,10.0,69,0.00,,,0.00,meteohub,2013-03-05 17:27:00,
2013-03-05 09:32:00,49.1,39.0,30.02,South,183,0.0,10.0,68,0.00,,,0.00,meteohub,2013-03-05 17:32:00,
2013-03-05 09:37:00,49.6,38.7,30.01,South,181,2.0,12.0,66,0.00,,,0.00,meteohub,2013-03-05 17:37:00,
2013-03-05 09:42:00,49.8,38.8,30.01,South,176,6.0,12.0,66,0.00,,,0.00,meteohub,2013-03-05 17:42:00,
2013-03-05 09:47:00,50.0,38.7,30.01,South,177,9.0,12.0,65,0.00,,,0.00,meteohub,2013-03-05 17:47:00,
2013-03-05 09:52:00,50.5,39.2,30.01,South,178,2.0,12.0,65,0.00,,,0.00,meteohub,2013-03-05 17:52:00,
2013-03-05 09:57:00,51.1,39.4,30.01,South,178,4.0,12.0,64,0.00,,,0.00,meteohub,2013-03-05 17:57:00,
2013-03-05 10:02:00,51.4,39.2,30.00,South,177,7.0,12.0,63,0.00,,,0.00,meteohub,2013-03-05 18:02:00,
2013-03-05 10:07:00,52.0,39.7,30.00,South,175,5.0,10.0,63,0.00,,,0.00,meteohub,2013-03-05 18:07:00,
2013-03-05 10:12:00,52.5,39.0,30.00,South,177,3.0,9.0,60,0.00,,,0.00,meteohub,2013-03-05 18:12:00,
2013-03-05 10:17:00,53.2,38.8,30.00,South,181,12.0,12.0,58,0.00,,,0.00,meteohub,2013-03-05 18:17:00,
2013-03-05 10:22:00,53.4,39.4,30.00,South,183,5.0,14.0,59,0.00,,,0.00,meteohub,2013-03-05 18:22:00,
2013-03-05 10:27:00,53.8,39.4,30.00,South,183,2.0,14.0,58,0.00,,,0.00,meteohub,2013-03-05 18:27:00,
2013-03-05 10:32:00,54.1,36.3,30.00,South,187,9.0,14.0,51,0.00,,,0.00,meteohub,2013-03-05 18:32:00,
2013-03-05 10:37:00,54.5,30.7,30.00,SSW,196,9.0,14.0,40,0.00,,,0.00,meteohub,2013-03-05 18:37:00,
2013-03-05 10:42:00,54.9,32.7,29.99,South,186,11.0,15.0,43,0.00,,,0.00,meteohub,2013-03-05 18:42:00,
2013-03-05 10:47:00,55.2,25.9,29.99,SSW,200,13.0,15.0,32,0.00,,,0.00,meteohub,2013-03-05 18:47:00,
2013-03-05 10:52:00,55.2,29.5,29.99,SSW,204,6.0,16.0,37,0.00,,,0.00,meteohub,2013-03-05 18:52:00,
2013-03-05 10:57:00,55.4,30.2,29.99,South,180,8.0,16.0,38,0.00,,,0.00,meteohub,2013-03-05 18:57:00,
2013-03-05 11:02:00,55.6,34.0,29.99,South,190,4.0,16.0,44,0.00,,,0.00,meteohub,2013-03-05 19:02:00,
2013-03-05 11:07:00,55.4,33.8,29.99,SSW,192,13.0,15.0,44,0.00,,,0.00,meteohub,2013-03-05 19:07:00,
2013-03-05 11:12:00,55.0,34.2,29.99,SW,220,11.0,15.0,45,0.00,,,0.00,meteohub,2013-03-05 19:12:00,
2013-03-05 11:17:00,55.0,36.7,29.99,SSW,204,10.0,15.0,50,0.00,,,0.00,meteohub,2013-03-05 19:17:00,
2013-03-05 11:22:00,54.7,36.9,29.99,SSW,193,5.0,15.0,51,0.00,,,0.00,meteohub,2013-03-05 19:22:00,
2013-03-05 11:27:00,54.9,37.0,29.98,South,182,6.0,15.0,51,0.00,,,0.00,meteohub,2013-03-05 19:27:00,
2013-03-05 11:32:00,54.9,36.5,29.98,South,179,10.0,15.0,50,0.00,,,0.00,meteohub,2013-03-05 19:32:00,
2013-03-05 11:37:00,55.2,35.4,29.98,SSW,208,11.0,15.0,47,0.00,,,0.00,meteohub,2013-03-05 19:37:00,
2013-03-05 11:42:00,55.6,37.2,29.98,South,188,10.0,14.0,50,0.00,,,0.00,meteohub,2013-03-05 19:42:00,
2013-03-05 11:47:00,55.9,37.6,29.98,SSW,201,11.0,14.0,50,0.00,,,0.00,meteohub,2013-03-05 19:47:00,
2013-03-05 11:52:00,55.9,35.4,29.98,South,191,10.0,16.0,46,0.00,,,0.00,meteohub,2013-03-05 19:52:00,
2013-03-05 11:57:00,56.5,35.4,29.97,South,179,4.0,16.0,45,0.00,,,0.00,meteohub,2013-03-05 19:57:00,
2013-03-05 12:02:00,56.5,37.6,29.98,SW,234,4.0,16.0,49,0.00,,,0.00,meteohub,2013-03-05 20:02:00,
2013-03-05 12:07:00,56.5,36.5,29.98,SSW,210,5.0,16.0,47,0.00,,,0.00,meteohub,2013-03-05 20:07:00,
2013-03-05 12:12:00,56.3,39.4,29.98,SSW,212,7.0,16.0,53,0.00,,,0.00,meteohub,2013-03-05 20:12:00,
2013-03-05 12:17:00,55.9,38.5,29.97,SSW,211,4.0,15.0,52,0.00,,,0.00,meteohub,2013-03-05 20:17:00,
2013-03-05 12:22:00,56.3,38.8,29.97,SW,219,5.0,15.0,52,0.00,,,0.00,meteohub,2013-03-05 20:22:00,
2013-03-05 12:27:00,56.3,39.9,29.97,SW,231,12.0,14.0,54,0.00,,,0.00,meteohub,2013-03-05 20:27:00,
2013-03-05 12:32:00,56.7,40.3,29.96,SSW,202,5.0,17.0,54,0.00,,,0.00,meteohub,2013-03-05 20:32:00,
2013-03-05 12:37:00,57.0,41.0,29.96,South,185,2.0,17.0,55,0.00,,,0.00,meteohub,2013-03-05 20:37:00,
2013-03-05 12:42:00,57.4,40.5,29.96,SW,220,6.0,17.0,53,0.00,,,0.00,meteohub,2013-03-05 20:42:00,
2013-03-05 12:47:00,57.6,39.6,29.96,SW,223,3.0,14.0,51,0.00,,,0.00,meteohub,2013-03-05 20:47:00,
2013-03-05 12:52:00,58.1,37.9,29.96,SW,225,6.0,14.0,47,0.00,,,0.00,meteohub,2013-03-05 20:52:00,
2013-03-05 12:57:00,58.3,38.1,29.95,SSW,197,3.0,14.0,47,0.00,,,0.00,meteohub,2013-03-05 20:57:00,
2013-03-05 13:02:00,58.6,36.1,29.95,SW,225,4.0,13.0,43,0.00,,,0.00,meteohub,2013-03-05 21:02:00,
2013-03-05 13:07:00,58.8,36.3,29.95,WSW,247,7.0,15.0,43,0.00,,,0.00,meteohub,2013-03-05 21:07:00,
2013-03-05 13:12:00,58.6,36.9,29.95,SW,224,4.0,16.0,44,0.00,,,0.00,meteohub,2013-03-05 21:12:00,
2013-03-05 13:17:00,59.0,37.8,29.95,SW,220,5.0,16.0,45,0.00,,,0.00,meteohub,2013-03-05 21:17:00,
2013-03-05 13:22:00,59.4,38.7,29.94,SSW,206,9.0,14.0,46,0.00,,,0.00,meteohub,2013-03-05 21:22:00,
2013-03-05 13:27:00,59.5,39.4,29.94,SW,232,15.0,15.0,47,0.00,,,0.00,meteohub,2013-03-05 21:27:00,
2013-03-05 13:32:00,59.2,39.0,29.94,WSW,254,3.0,16.0,47,0.00,,,0.00,meteohub,2013-03-05 21:32:00,
2013-03-05 13:37:00,59.5,39.9,29.94,SW,227,8.0,16.0,48,0.00,,,0.00,meteohub,2013-03-05 21:37:00,
2013-03-05 13:42:00,59.7,41.0,29.94,SW,219,11.0,16.0,50,0.00,,,0.00,meteohub,2013-03-05 21:42:00,
2013-03-05 13:47:00,59.4,41.2,29.93,South,187,3.0,14.0,51,0.00,,,0.00,meteohub,2013-03-05 21:47:00,
2013-03-05 13:52:00,59.7,41.0,29.93,South,190,6.0,16.0,50,0.00,,,0.00,meteohub,2013-03-05 21:52:00,
2013-03-05 13:57:00,60.3,41.5,29.93,South,179,5.0,16.0,50,0.00,,,0.00,meteohub,2013-03-05 21:57:00,
2013-03-05 14:02:00,60.3,41.5,29.93,SW,222,9.0,13.0,50,0.00,,,0.00,meteohub,2013-03-05 22:02:00,
2013-03-05 14:07:00,59.9,42.3,29.92,SSE,167,2.0,15.0,52,0.00,,,0.00,meteohub,2013-03-05 22:07:00,
2013-03-05 14:12:00,60.1,41.4,29.92,SW,231,7.0,15.0,50,0.00,,,0.00,meteohub,2013-03-05 22:12:00,
2013-03-05 14:17:00,60.1,41.4,29.92,WSW,240,7.0,13.0,50,0.00,,,0.00,meteohub,2013-03-05 22:17:00,
2013-03-05 14:22:00,60.4,41.7,29.92,SSW,203,5.0,13.0,50,0.00,,,0.00,meteohub,2013-03-05 22:22:00,
2013-03-05 14:27:00,60.4,41.7,29.91,South,191,10.0,14.0,50,0.00,,,0.00,meteohub,2013-03-05 22:27:00,
2013-03-05 14:32:00,60.4,42.3,29.91,SW,214,5.0,14.0,51,0.00,,,0.00,meteohub,2013-03-05 22:32:00,
2013-03-05 14:37:00,60.6,41.4,29.91,WSW,243,3.0,16.0,49,0.00,,,0.00,meteohub,2013-03-05 22:37:00,
2013-03-05 14:42:00,60.4,41.7,29.92,South,173,3.0,16.0,50,0.00,,,0.00,meteohub,2013-03-05 22:42:00,
2013-03-05 14:47:00,60.4,41.2,29.92,SW,221,10.0,20.0,49,0.00,,,0.00,meteohub,2013-03-05 22:47:00,
2013-03-05 14:52:00,60.4,41.7,29.91,SSW,208,11.0,20.0,50,0.00,,,0.00,meteohub,2013-03-05 22:52:00,
2013-03-05 14:57:00,60.6,41.9,29.91,West,271,11.0,20.0,50,0.00,,,0.00,meteohub,2013-03-05 22:57:00,
2013-03-05 15:02:00,60.1,41.4,29.91,WSW,250,6.0,14.0,50,0.00,,,0.00,meteohub,2013-03-05 23:02:00,
2013-03-05 15:07:00,60.1,41.9,29.91,WSW,239,13.0,14.0,51,0.00,,,0.00,meteohub,2013-03-05 23:07:00,
2013-03-05 15:12:00,59.7,42.1,29.91,SW,235,4.0,17.0,52,0.00,,,0.00,meteohub,2013-03-05 23:12:00,
2013-03-05 15:17:00,59.4,41.7,29.91,WSW,237,5.0,17.0,52,0.00,,,0.00,meteohub,2013-03-05 23:17:00,
2013-03-05 15:22:00,59.0,42.4,29.91,SSW,203,7.0,17.0,54,0.00,,,0.00,meteohub,2013-03-05 23:22:00,
2013-03-05 15:27:00,59.2,42.1,29.91,WSW,242,9.0,14.0,53,0.00,,,0.00,meteohub,2013-03-05 23:27:00,
2013-03-05 15:32:00,58.6,42.1,29.91,SW,235,5.0,14.0,54,0.00,,,0.00,meteohub,2013-03-05 23:32:00,
2013-03-05 15:37:00,58.6,42.4,29.91,WSW,247,3.0,14.0,55,0.00,,,0.00,meteohub,2013-03-05 23:37:00,
2013-03-05 15:42:00,58.5,42.4,29.91,WSW,253,5.0,15.0,55,0.00,,,0.00,meteohub,2013-03-05 23:42:00,
2013-03-05 15:47:00,58.1,42.4,29.91,NW,314,1.0,15.0,56,0.00,,,0.00,meteohub,2013-03-05 23:47:00,
2013-03-05 15:52:00,58.3,42.6,29.91,West,259,6.0,14.0,56,0.00,,,0.00,meteohub,2013-03-05 23:52:00,
2013-03-05 15:57:00,57.7,42.6,29.91,WNW,295,3.0,14.0,57,0.00,,,0.00,meteohub,2013-03-05 23:57:00,
2013-03-05 16:02:00,57.9,42.3,29.91,WNW,287,1.0,14.0,56,0.00,,,0.00,meteohub,2013-03-06 00:02:00,
2013-03-05 16:07:00,58.5,42.8,29.91,WSW,249,3.0,16.0,56,0.00,,,0.00,meteohub,2013-03-06 00:07:00,
2013-03-05 16:12:00,58.8,42.6,29.91,West,271,2.0,16.0,55,0.00,,,0.00,meteohub,2013-03-06 00:12:00,
2013-03-05 16:18:00,58.6,42.4,29.91,WSW,239,0.0,16.0,55,0.00,,,0.00,meteohub,2013-03-06 00:18:00,
2013-03-05 16:23:00,58.6,42.4,29.91,West,276,6.0,13.0,55,0.00,,,0.00,meteohub,2013-03-06 00:23:00,
2013-03-05 16:28:00,58.1,42.4,29.91,WNW,283,3.0,13.0,56,0.00,,,0.00,meteohub,2013-03-06 00:28:00,
2013-03-05 16:33:00,57.4,42.3,29.90,WSW,254,2.0,12.0,57,0.00,,,0.00,meteohub,2013-03-06 00:33:00,
2013-03-05 16:38:00,57.6,42.4,29.90,South,186,7.0,12.0,57,0.00,,,0.00,meteohub,2013-03-06 00:38:00,
2013-03-05 16:43:00,57.7,42.6,29.90,SSW,208,1.0,12.0,57,0.00,,,0.00,meteohub,2013-03-06 00:43:00,
2013-03-05 16:48:00,57.7,42.6,29.90,SSW,208,1.0,10.0,57,0.00,,,0.00,meteohub,2013-03-06 00:48:00,
2013-03-05 16:54:00,57.7,42.6,29.89,SSW,208,0.0,9.0,57,0.00,,,0.00,meteohub,2013-03-06 00:54:00,
2013-03-05 16:59:00,57.7,42.6,29.89,SSW,210,6.0,6.0,57,0.00,,,0.00,meteohub,2013-03-06 00:59:00,
2013-03-05 17:04:00,57.4,42.8,29.89,SW,227,2.0,5.0,58,0.00,,,0.00,meteohub,2013-03-06 01:04:00,
2013-03-05 17:09:00,56.8,42.6,29.89,SW,223,1.0,10.0,59,0.00,,,0.00,meteohub,2013-03-06 01:09:00,
2013-03-05 17:14:00,56.1,42.4,29.88,SSW,211,2.0,10.0,60,0.00,,,0.00,meteohub,2013-03-06 01:14:00,
2013-03-05 17:19:00,55.8,43.0,29.88,SSW,202,1.0,9.0,62,0.00,,,0.00,meteohub,2013-03-06 01:19:00,
2013-03-05 17:25:00,55.2,42.8,29.88,SSW,202,1.0,3.0,63,0.00,,,0.00,meteohub,2013-03-06 01:25:00,
2013-03-05 17:30:00,55.0,42.6,29.88,SSW,200,1.0,3.0,63,0.00,,,0.00,meteohub,2013-03-06 01:30:00,
2013-03-05 17:35:00,54.7,42.8,29.88,SSW,199,1.0,4.0,64,0.00,,,0.00,meteohub,2013-03-06 01:35:00,
2013-03-05 17:40:00,54.1,42.3,29.87,SSW,197,1.0,4.0,64,0.00,,,0.00,meteohub,2013-03-06 01:40:00,
2013-03-05 17:45:00,54.0,42.4,29.87,SSW,197,0.0,4.0,65,0.00,,,0.00,meteohub,2013-03-06 01:45:00,
2013-03-05 17:50:00,53.8,42.6,29.87,SSW,197,0.0,3.0,66,0.00,,,0.00,meteohub,2013-03-06 01:50:00,
2013-03-05 17:55:00,53.2,42.6,29.87,SSW,197,0.0,1.0,67,0.00,,,0.00,meteohub,2013-03-06 01:55:00,
2013-03-05 18:01:00,52.9,42.3,29.86,SSW,197,0.0,1.0,67,0.00,,,0.00,meteohub,2013-03-06 02:01:00,
2013-03-05 18:06:00,52.5,41.9,29.86,SSW,197,0.0,0.0,67,0.00,,,0.00,meteohub,2013-03-06 02:06:00,
2013-03-05 18:11:00,52.3,42.1,29.86,SSW,197,0.0,0.0,68,0.00,,,0.00,meteohub,2013-03-06 02:11:00,
2013-03-05 18:16:00,52.0,42.1,29.86,SSW,197,0.0,0.0,69,0.00,,,0.00,meteohub,2013-03-06 02:16:00,
2013-03-05 18:21:00,51.6,42.1,29.86,SSW,197,0.0,0.0,70,0.00,,,0.00,meteohub,2013-03-06 02:21:00,
2013-03-05 18:27:00,51.4,41.9,29.86,SSW,197,0.0,0.0,70,0.00,,,0.00,meteohub,2013-03-06 02:27:00,
2013-03-05 18:32:00,51.1,42.1,29.86,SSW,197,0.0,0.0,71,0.00,,,0.00,meteohub,2013-03-06 02:32:00,
2013-03-05 18:37:00,51.1,42.1,29.86,SSW,196,0.0,0.0,71,0.00,,,0.00,meteohub,2013-03-06 02:37:00,
2013-03-05 18:42:00,51.1,42.1,29.86,SSW,196,0.0,0.0,71,0.00,,,0.00,meteohub,2013-03-06 02:42:00,
2013-03-05 18:47:00,51.1,42.1,29.86,SSW,194,0.0,0.0,71,0.00,,,0.00,meteohub,2013-03-06 02:47:00,
2013-03-05 18:52:00,51.1,42.1,29.86,SSW,194,0.0,0.0,71,0.00,,,0.00,meteohub,2013-03-06 02:52:00,
2013-03-05 18:57:00,51.3,42.3,29.85,South,187,0.0,0.0,71,0.00,,,0.00,meteohub,2013-03-06 02:57:00,
2013-03-05 19:02:00,51.3,42.6,29.85,ESE,123,0.0,2.0,72,0.00,,,0.00,meteohub,2013-03-06 03:02:00,
2013-03-05 19:07:00,51.3,42.6,29.85,ESE,113,2.0,2.0,72,0.00,,,0.00,meteohub,2013-03-06 03:07:00,
2013-03-05 19:12:00,51.3,42.6,29.85,ESE,115,0.0,3.0,72,0.00,,,0.00,meteohub,2013-03-06 03:12:00,
2013-03-05 19:17:00,51.3,42.6,29.85,ESE,115,0.0,3.0,72,0.00,,,0.00,meteohub,2013-03-06 03:17:00,
2013-03-05 19:22:00,51.4,42.8,29.85,ESE,115,1.0,3.0,72,0.00,,,0.00,meteohub,2013-03-06 03:22:00,
2013-03-05 19:27:00,51.3,42.6,29.85,ESE,115,0.0,1.0,72,0.00,,,0.00,meteohub,2013-03-06 03:27:00,
2013-03-05 19:32:00,51.3,42.3,29.85,ESE,115,0.0,1.0,71,0.00,,,0.00,meteohub,2013-03-06 03:32:00,
2013-03-05 19:37:00,51.3,42.3,29.85,ESE,114,0.0,1.0,71,0.00,,,0.00,meteohub,2013-03-06 03:37:00,
2013-03-05 19:42:00,51.3,42.3,29.85,ESE,114,0.0,0.0,71,0.00,,,0.00,meteohub,2013-03-06 03:42:00,
2013-03-05 19:47:00,51.3,42.3,29.85,ESE,114,0.0,0.0,71,0.00,,,0.00,meteohub,2013-03-06 03:47:00,
2013-03-05 19:52:00,51.4,42.4,29.85,ESE,114,0.0,0.0,71,0.00,,,0.00,meteohub,2013-03-06 03:52:00,
2013-03-05 19:57:00,51.3,42.3,29.84,ESE,114,0.0,0.0,71,0.00,,,0.00,meteohub,2013-03-06 03:57:00,
2013-03-05 20:03:00,51.4,42.4,29.84,ESE,114,1.0,0.0,71,0.00,,,0.00,meteohub,2013-03-06 04:03:00,
2013-03-05 20:08:00,51.6,42.4,29.84,ESE,114,1.0,2.0,71,0.00,,,0.00,meteohub,2013-03-06 04:08:00,
2013-03-05 20:13:00,51.6,42.1,29.85,ESE,114,0.0,2.0,70,0.00,,,0.00,meteohub,2013-03-06 04:13:00,
2013-03-05 20:18:00,51.8,42.3,29.85,ESE,114,0.0,2.0,70,0.00,,,0.00,meteohub,2013-03-06 04:18:00,
2013-03-05 20:23:00,52.0,42.8,29.85,ESE,114,1.0,2.0,71,0.00,,,0.00,meteohub,2013-03-06 04:23:00,
2013-03-05 20:29:00,51.6,42.4,29.86,ESE,114,0.0,2.0,71,0.00,,,0.00,meteohub,2013-03-06 04:29:00,
2013-03-05 20:34:00,51.6,42.4,29.86,ESE,114,0.0,2.0,71,0.00,,,0.00,meteohub,2013-03-06 04:34:00,
2013-03-05 20:39:00,51.6,42.1,29.86,ESE,114,0.0,2.0,70,0.00,,,0.00,meteohub,2013-03-06 04:39:00,
2013-03-05 20:44:00,51.8,42.3,29.86,ESE,114,2.0,3.0,70,0.00,,,0.00,meteohub,2013-03-06 04:44:00,
2013-03-05 20:49:00,52.2,42.3,29.85,ESE,114,0.0,3.0,69,0.00,,,0.00,meteohub,2013-03-06 04:49:00,
2013-03-05 20:54:00,52.3,42.4,29.86,ESE,114,0.0,3.0,69,0.00,,,0.00,meteohub,2013-03-06 04:54:00,
2013-03-05 20:59:00,52.3,42.4,29.85,ESE,114,0.0,3.0,69,0.00,,,0.00,meteohub,2013-03-06 04:59:00,
2013-03-05 21:00:00,52.3,42.4,29.85,ESE,114,0.0,3.0,69,0.00,,,0.00,meteohub,2013-03-06 05:00:00,
2013-03-05 21:03:00,52.3,42.4,29.85,ESE,114,0.0,2.0,69,0.00,,,0.00,meteohub,2013-03-06 05:03:00,
2013-03-05 21:08:00,52.2,42.6,29.85,ESE,114,0.0,2.0,70,0.00,,,0.00,meteohub,2013-03-06 05:08:00,
2013-03-05 21:13:00,52.0,42.8,29.85,ESE,114,0.0,1.0,71,0.00,,,0.00,meteohub,2013-03-06 05:13:00,
2013-03-05 21:19:00,51.6,42.4,29.85,ESE,114,0.0,1.0,71,0.00,,,0.00,meteohub,2013-03-06 05:19:00,
2013-03-05 21:24:00,51.6,42.4,29.85,ESE,114,0.0,1.0,71,0.00,,,0.00,meteohub,2013-03-06 05:24:00,
2013-03-05 21:29:00,51.6,42.4,29.85,ESE,114,0.0,0.0,71,0.00,,,0.00,meteohub,2013-03-06 05:29:00,
2013-03-05 21:34:00,51.4,42.8,29.86,ESE,116,1.0,0.0,72,0.00,,,0.00,meteohub,2013-03-06 05:34:00,
2013-03-05 21:39:00,51.3,43.0,29.86,ESE,116,0.0,3.0,73,0.00,,,0.00,meteohub,2013-03-06 05:39:00,
2013-03-05 21:44:00,51.3,43.0,29.86,ESE,117,0.0,3.0,73,0.00,,,0.00,meteohub,2013-03-06 05:44:00,
2013-03-05 21:49:00,51.3,43.0,29.86,ESE,119,1.0,3.0,73,0.00,,,0.00,meteohub,2013-03-06 05:49:00,
2013-03-05 21:55:00,51.4,43.2,29.86,SE,124,1.0,4.0,73,0.00,,,0.00,meteohub,2013-03-06 05:55:00,
2013-03-05 22:00:00,51.6,43.0,29.86,SE,126,0.0,4.0,72,0.00,,,0.00,meteohub,2013-03-06 06:00:00,
2013-03-05 22:05:00,51.4,43.2,29.86,SE,126,2.0,4.0,73,0.00,,,0.00,meteohub,2013-03-06 06:05:00,
2013-03-05 22:10:00,51.4,43.2,29.85,SE,127,2.0,4.0,73,0.00,,,0.00,meteohub,2013-03-06 06:10:00,
2013-03-05 22:15:00,51.3,43.0,29.85,SE,130,1.0,7.0,73,0.00,,,0.00,meteohub,2013-03-06 06:15:00,
2013-03-05 22:20:00,51.1,43.2,29.84,SE,130,0.0,7.0,74,0.00,,,0.00,meteohub,2013-03-06 06:20:00,
2013-03-05 22:26:00,50.9,43.0,29.84,SE,130,2.0,7.0,74,0.00,,,0.00,meteohub,2013-03-06 06:26:00,
2013-03-05 22:31:00,50.7,42.8,29.84,SE,131,2.0,6.0,74,0.00,,,0.00,meteohub,2013-03-06 06:31:00,
2013-03-05 22:36:00,50.7,43.2,29.83,ESE,115,0.0,6.0,75,0.00,,,0.00,meteohub,2013-03-06 06:36:00,
2013-03-05 22:41:00,50.7,43.2,29.83,ESE,119,2.0,6.0,75,0.00,,,0.00,meteohub,2013-03-06 06:41:00,
2013-03-05 22:46:00,50.9,43.0,29.83,ESE,123,2.0,6.0,74,0.00,,,0.00,meteohub,2013-03-06 06:46:00,
2013-03-05 22:51:00,51.1,43.2,29.83,SE,129,2.0,5.0,74,0.00,,,0.00,meteohub,2013-03-06 06:51:00,
2013-03-05 22:57:00,51.1,43.2,29.85,South,187,1.0,6.0,74,0.00,,,0.00,meteohub,2013-03-06 06:57:00,
2013-03-05 23:02:00,51.1,43.5,29.85,South,189,3.0,6.0,75,0.00,,,0.00,meteohub,2013-03-06 07:02:00,
2013-03-05 23:07:00,50.7,43.2,29.85,South,188,4.0,9.0,75,0.00,,,0.00,meteohub,2013-03-06 07:07:00,
2013-03-05 23:12:00,50.9,43.5,29.85,South,187,4.0,11.0,76,0.00,,,0.00,meteohub,2013-03-06 07:12:00,
2013-03-05 23:17:00,50.7,43.2,29.86,SSW,213,9.0,11.0,75,0.00,,,0.00,meteohub,2013-03-06 07:17:00,
2013-03-05 23:22:00,50.4,43.2,29.87,SSW,203,3.0,14.0,76,0.00,,,0.00,meteohub,2013-03-06 07:22:00,
2013-03-05 23:27:00,50.0,42.8,29.88,SSW,196,3.0,14.0,76,0.00,,,0.00,meteohub,2013-03-06 07:27:00,
2013-03-05 23:32:00,49.8,43.0,29.88,SSW,196,7.0,14.0,77,0.00,,,0.00,meteohub,2013-03-06 07:32:00,
2013-03-05 23:37:00,49.5,42.6,29.88,South,185,6.0,22.0,77,0.00,,,0.00,meteohub,2013-03-06 07:37:00,
2013-03-05 23:42:00,49.5,42.3,29.87,South,184,12.0,22.0,76,0.00,,,0.00,meteohub,2013-03-06 07:42:00,
2013-03-05 23:47:00,49.1,42.3,29.87,SSW,209,15.0,22.0,77,0.00,,,0.00,meteohub,2013-03-06 07:47:00,
2013-03-05 23:52:00,48.6,42.6,29.87,South,181,1.0,23.0,80,0.03,,,0.03,meteohub,2013-03-06 07:52:00,
2013-03-05 23:57:00,48.2,41.7,29.86,SSW,192,3.0,24.0,78,0.04,,,0.04,meteohub,2013-03-06 07:57:00,